Theta_e
319 321 323 322 323 323 322 322 321 319 312 308 308 308 309 309 310 309 312 313 312 307 308 310 309 309 306 305 307 308 311 310 314 317 311 314 318 318 319 318 318 317 317 326 319 325 330 326 332 335 333 334 333 333
319 319 322 322 322 323 322 321 321 320 318 314 308 308 308 309 309 309 311 313 313 309 309 312 313 311 310 310 305 308 312 310 311 313 313 310 315 316 317 319 313 322 319 326 329 331 322 317 321 327 327 329 331 332
320 319 319 322 322 322 322 322 321 316 313 313 310 308 308 308 309 309 309 312 312 306 307 308 309 312 311 310 309 311 312 313 314 312 312 312 313 314 321 317 317 318 318 322 324 320 317 315 314 315 316 327 328 326
322 321 320 320 320 321 322 322 321 317 312 310 311 309 308 308 308 309 309 310 310 307 309 310 311 312 311 311 310 310 310 311 311 311 314 313 312 312 314 315 314 314 317 318 317 316 319 318 312 313 314 314 314 315
323 322 322 321 320 319 320 321 322 321 314 312 311 311 308 308 308 309 312 310 309 309 309 308 310 312 312 311 310 310 309 307 309 310 311 312 309 313 312 310 313 313 314 317 319 313 311 312 311 311 311 313 314 313
322 322 322 322 322 320 319 321 322 321 315 312 312 311 310 308 308 311 310 309 310 309 308 311 308 310 312 311 311 310 308 304 305 307 308 307 308 308 312 312 310 309 308 309 312 309 310 310 309 308 308 309 311 314
322 323 322 322 322 322 320 320 321 321 316 315 315 311 308 308 308 309 311 311 312 310 309 312 310 309 311 309 307 307 307 307 306 305 309 307 309 308 309 311 309 308 307 307 306 307 310 308 307 305 306 307 311 314
323 323 323 322 322 322 321 320 320 321 318 315 316 310 308 308 309 310 312 312 311 309 308 311 311 311 310 309 309 305 306 306 307 307 306 307 307 307 311 308 307 308 307 306 306 305 305 304 303 304 305 307 308 311
323 323 323 322 322 322 321 321 321 320 319 315 314 310 310 310 310 313 312 311 311 310 312 312 310 311 307 307 305 306 305 310 306 310 310 307 307 306 309 307 307 306 306 306 305 305 304 304 303 303 305 307 308 309
323 323 323 323 322 321 320 321 321 321 319 315 312 312 314 313 312 312 310 308 307 307 307 311 311 313 308 306 307 306 305 307 310 308 307 304 308 307 306 306 305 304 304 304 305 304 304 303 303 303 304 305 306 307
323 323 323 323 322 321 320 321 321 320 316 315 314 316 313 314 313 312 314 315 313 316 311 312 312 313 308 310 308 305 308 304 304 308 308 309 306 309 306 305 304 304 305 304 304 304 303 303 302 302 303 303 304 306
323 323 322 322 322 321 320 321 320 318 316 315 313 312 312 313 315 317 318 317 316 320 318 317 315 310 310 306 309 307 311 310 313 308 309 311 308 307 307 307 305 304 306 305 305 304 303 303 302 302 302 302 303 304
323 322 322 323 322 321 320 320 319 316 313 312 311 314 316 317 317 322 326 324 319 318 316 316 314 312 310 308 309 311 314 313 309 311 312 309 308 308 307 308 307 306 306 307 306 305 304 302 302 302 302 302 302 302
322 321 321 321 321 321 320 320 318 313 312 313 318 318 320 322 321 321 323 321 319 319 320 320 315 316 313 313 312 316 314 313 314 313 313 309 308 308 306 308 308 308 307 306 305 306 305 304 302 302 302 302 301 302
316 316 318 321 322 321 320 319 315 312 311 315 316 320 322 319 321 321 321 322 323 322 321 321 320 317 319 318 315 315 315 314 311 310 308 307 306 304 304 307 308 308 307 306 307 306 306 305 304 302 302 302 302 302
318 318 319 320 321 321 319 315 311 311 312 314 315 320 321 321 320 321 321 322 322 322 319 318 322 320 320 318 317 315 313 312 310 307 307 305 305 304 303 303 306 308 309 308 308 308 307 306 305 305 305 303 303 303
316 318 320 321 320 318 315 313 311 312 314 317 318 317 318 319 317 317 318 321 320 321 322 320 324 323 316 316 317 313 313 311 307 308 305 306 306 304 302 302 304 305 305 306 307 307 308 308 306 305 303 306 305 304
316 317 319 319 318 312 312 312 313 315 318 316 316 317 318 320 317 316 318 319 321 322 322 323 322 321 320 318 315 313 311 309 307 307 306 305 304 304 305 303 305 306 305 305 306 306 306 307 305 305 306 307 305 306
316 317 317 315 315 314 313 312 312 318 318 317 317 317 318 317 315 316 316 321 320 322 323 324 322 321 319 316 316 314 310 309 309 307 306 306 306 306 307 307 306 306 306 306 306 305 306 305 306 306 307 307 306 307
313 314 314 313 314 314 317 317 313 316 319 318 319 319 317 316 316 318 321 322 322 324 327 327 320 317 315 312 311 311 309 307 308 309 309 307 309 308 308 308 308 309 307 306 306 306 305 305 306 306 306 307 307 307
310 312 313 312 313 313 315 318 319 318 318 321 317 318 319 317 320 320 321 320 323 322 321 318 319 316 313 313 315 310 308 308 308 309 309 309 310 310 310 310 309 309 307 306 306 307 307 307 307 306 305 306 306 306
312 312 311 311 312 313 314 314 317 317 319 317 317 318 321 322 321 321 319 321 322 322 317 318 317 315 314 311 310 311 312 312 311 311 311 311 309 308 309 310 309 308 307 308 307 306 305 305 305 304 303 303 303 304
312 313 313 312 316 315 314 316 320 320 323 323 322 324 326 323 321 319 323 322 321 318 317 316 316 316 311 312 312 310 310 311 309 310 311 311 312 311 311 312 312 310 307 309 305 303 304 304 303 301 302 302 302 302
314 315 317 318 317 317 318 321 320 321 322 325 326 327 327 323 320 319 320 321 319 315 316 318 314 310 309 309 307 308 310 310 310 310 311 309 306 309 312 313 312 312 312 312 304 303 304 303 302 301 301 301 301 301
314 316 314 312 319 321 323 323 323 323 325 325 325 325 325 324 326 327 326 321 319 317 317 313 310 310 310 308 308 310 311 310 309 308 312 311 308 306 307 308 309 309 309 304 302 303 303 303 303 302 302 302 302 301
315 317 316 320 321 323 323 326 326 326 326 327 327 327 326 327 330 327 321 321 320 318 317 314 311 310 309 308 308 308 313 312 311 311 313 312 311 307 303 302 301 304 304 303 303 303 303 303 303 302 301 302 301 301
316 319 319 315 317 321 322 322 322 323 326 327 327 327 327 330 328 324 320 319 321 321 321 318 316 312 311 312 313 313 313 314 314 315 315 316 316 313 309 306 302 306 305 303 303 303 303 302 302 302 302 302 302 302
317 317 321 317 319 320 324 323 324 326 326 325 325 327 329 329 326 321 322 323 323 323 324 322 319 318 318 318 318 318 316 316 312 308 306 306 306 306 306 305 305 306 304 303 302 303 302 302 301 301 301 301 301 301
318 317 318 322 321 321 322 322 322 321 324 325 327 326 327 323 322 322 322 323 323 324 322 321 322 321 321 321 319 318 315 309 305 303 303 301 300 303 304 304 304 303 302 302 302 302 302 302 302 302 302 301 301 301
318 314 320 324 324 324 321 319 319 322 323 323 323 323 322 321 323 323 322 322 322 322 322 323 322 320 317 316 314 313 312 311 311 307 302 301 303 305 303 303 303 302 302 302 302 301 301 301 302 302 301 301 302 304
319 319 322 323 325 323 323 321 321 321 322 324 324 324 323 323 323 323 324 324 323 323 324 320 319 320 317 316 314 311 309 310 309 308 309 310 310 308 304 303 303 302 302 302 302 302 302 302 301 301 301 301 304 304
320 320 323 324 323 323 323 323 323 324 323 323 323 323 324 323 324 321 325 326 324 321 322 321 319 319 319 318 318 316 316 313 311 309 310 310 307 307 306 304 303 303 302 302 302 302 302 302 303 303 303 304 304 303
322 324 324 324 326 326 325 323 323 324 323 324 325 324 323 323 326 322 324 324 324 323 322 322 321 320 320 320 319 318 317 316 313 311 308 307 306 305 305 304 303 303 302 302 303 304 304 304 304 304 304 304 303 303
Wind_Speed
14 14 16 17 17 19 19 18 20 18 16 13 12 12 13 14 16 13 1 9 4 2 5 3 2 1 1 2 2 3 3 3 3 1 1 2 2 3 3 2 3 3 2 4 1 4 3 17 5 2 5 2 5 9
14 14 14 16 17 18 19 19 21 23 21 18 12 11 11 12 13 13 2 9 9 4 5 6 13 10 7 7 4 3 2 3 3 1 1 1 2 2 2 1 4 3 2 2 4 5 3 10 10 7 4 5 3 6
14 14 15 15 17 19 21 22 23 23 20 18 14 11 11 11 11 12 6 10 5 3 5 3 4 8 6 5 3 4 2 4 3 1 2 1 1 2 2 1 1 2 4 2 0 5 5 13 16 17 13 6 6 6
16 15 15 16 17 19 21 22 24 25 21 17 14 11 10 10 10 10 7 6 2 2 1 5 7 5 3 4 0 1 5 6 5 2 2 2 1 3 2 3 2 2 3 2 4 4 2 6 13 14 16 14 14 11
17 19 16 16 17 18 20 22 23 24 22 18 13 12 10 9 10 11 5 2 2 2 2 4 16 6 4 4 4 4 6 2 1 2 3 4 2 3 1 2 2 2 2 2 2 4 2 5 12 14 14 12 12 9
19 19 17 16 18 18 19 21 23 22 19 18 16 14 10 8 8 3 1 3 5 2 2 3 4 4 2 4 5 8 3 2 2 3 2 3 1 3 3 2 1 2 4 3 3 2 1 5 8 10 12 11 12 10
20 20 18 18 20 19 18 19 21 23 20 19 17 13 7 7 6 3 3 3 3 7 2 3 4 4 3 3 3 2 4 2 1 0 2 1 3 3 3 2 5 4 5 7 5 3 4 8 8 13 12 18 18 13
21 21 21 19 18 19 17 17 18 21 21 18 18 10 7 7 8 5 2 3 6 2 1 1 4 3 1 2 2 2 2 3 4 1 3 2 3 2 2 1 6 5 6 5 3 2 3 3 5 8 13 12 10 10
23 21 22 21 20 19 16 15 16 19 21 18 15 7 2 2 2 1 1 2 3 1 1 1 2 3 1 0 1 3 2 3 2 2 1 2 2 0 5 7 7 6 7 6 4 2 1 4 6 8 9 11 11 12
25 26 25 21 19 17 13 13 15 18 19 14 3 1 1 1 0 1 0 2 2 1 1 3 1 2 3 1 2 2 2 1 2 3 1 3 2 3 5 8 7 8 7 7 5 3 3 1 2 4 6 8 8 10
25 21 18 15 16 14 12 12 14 16 8 3 2 1 4 3 1 1 2 2 2 2 3 3 4 3 2 2 3 2 2 0 2 4 3 2 3 4 7 7 6 8 9 7 5 5 6 4 2 2 3 7 10 12
17 14 12 13 13 12 11 13 13 8 4 3 8 7 2 1 1 2 3 1 2 3 2 3 4 4 2 3 2 1 2 1 3 2 2 2 4 5 9 8 8 11 12 9 9 7 5 4 4 4 4 5 8 11
12 12 12 11 11 13 12 13 13 9 8 2 1 2 1 1 1 4 3 1 2 2 2 0 1 3 1 3 2 2 0 4 1 1 3 4 3 5 9 7 8 12 12 9 9 11 11 9 6 4 2 3 7 10
12 13 12 12 13 13 13 12 10 4 2 1 2 3 3 3 4 4 1 2 2 2 2 1 0 2 2 2 2 2 3 2 1 2 5 3 7 8 8 7 7 9 9 10 11 14 12 10 6 3 1 3 7 9
11 13 14 16 14 12 11 12 6 4 2 2 2 3 5 5 3 3 3 3 4 2 1 1 2 1 1 1 3 1 1 3 4 4 4 4 7 8 7 7 8 7 7 8 14 13 14 12 9 7 5 2 3 6
9 9 10 9 8 9 9 7 6 4 2 2 4 3 4 4 3 1 2 3 3 3 1 2 1 1 3 3 3 6 5 5 4 4 3 5 7 7 6 7 9 13 14 15 16 18 17 14 16 14 9 11 10 7
6 5 4 4 5 7 10 5 4 3 3 3 4 4 5 4 5 5 3 3 7 3 2 2 3 7 2 3 3 4 5 5 4 3 3 7 9 8 7 9 11 13 12 12 12 13 17 19 16 13 13 22 16 15
6 4 3 5 10 12 4 4 3 2 5 5 3 3 4 3 3 4 3 3 3 2 2 2 2 2 3 4 3 3 3 3 1 3 5 5 4 10 14 12 16 15 14 13 15 14 13 13 13 17 22 25 19 19
6 6 7 8 8 4 3 3 3 3 5 2 4 4 3 4 4 7 3 7 4 4 3 1 3 3 4 4 4 3 3 3 3 3 2 4 12 14 15 17 18 15 14 16 16 18 18 16 18 18 20 20 18 22
13 7 6 12 7 2 2 2 4 3 3 3 3 3 3 4 3 2 2 4 5 3 3 3 5 3 4 3 4 4 3 5 4 3 0 2 10 13 15 16 17 20 20 19 19 18 17 15 14 15 18 21 17 22
8 6 10 14 4 4 2 2 3 3 3 3 3 3 4 2 3 1 2 4 3 3 4 4 4 4 5 7 7 3 5 8 5 5 5 4 11 17 17 17 15 12 11 10 10 17 16 19 17 12 12 18 19 19
5 12 5 8 3 2 2 5 2 3 2 3 3 2 3 3 2 1 3 1 3 4 4 3 2 2 2 1 2 5 9 15 11 4 7 6 3 3 6 18 11 9 12 14 15 17 13 8 10 8 8 9 9 11
11 6 4 4 3 3 4 4 2 2 3 3 3 3 3 2 2 1 2 3 3 3 3 3 2 4 4 4 7 6 7 13 7 12 12 16 18 15 13 17 18 16 10 15 12 10 11 11 11 10 9 8 8 10
4 5 3 3 4 3 2 2 2 2 2 2 2 4 3 2 1 1 3 2 2 1 1 3 6 4 4 3 2 4 8 10 9 7 11 11 6 16 21 24 24 22 23 19 14 15 16 15 13 11 9 10 11 9
1 2 3 4 2 2 3 2 3 3 3 3 3 4 2 2 1 2 2 2 1 2 2 3 2 3 4 3 2 6 10 15 11 5 10 18 16 10 10 14 17 17 15 15 16 18 18 17 15 14 12 13 13 15
2 4 6 6 3 3 4 3 4 4 3 3 2 3 2 2 3 4 2 2 3 4 4 5 5 4 4 7 4 3 15 15 14 6 12 13 15 14 8 4 3 12 18 20 15 17 16 16 18 14 13 14 13 13
3 4 3 3 2 2 2 3 2 2 3 3 2 2 2 2 3 2 2 1 1 4 13 20 20 11 7 9 15 17 14 12 16 13 14 10 12 13 14 12 12 19 16 18 14 11 12 9 8 7 6 5 7 9
4 2 6 4 3 2 2 2 3 4 3 2 2 3 2 3 3 2 3 3 9 11 11 21 25 25 22 18 17 14 9 11 12 11 10 8 8 9 9 6 4 5 12 13 11 10 8 5 6 7 8 10 14 15
3 3 2 4 3 3 5 5 4 3 3 3 2 2 3 3 2 3 6 10 12 11 3 7 12 15 16 16 15 16 19 24 17 6 7 4 1 7 9 10 11 10 10 11 9 7 5 4 4 5 7 11 15 19
5 4 3 5 5 6 4 6 4 4 2 2 2 1 3 4 14 18 19 18 13 7 8 10 11 15 15 16 13 16 28 28 25 17 6 6 12 12 17 17 14 11 9 9 8 8 8 9 11 12 13 16 20 15
2 4 3 4 4 4 5 5 4 2 3 4 5 4 3 4 10 22 22 22 19 9 8 12 15 22 19 17 16 13 11 29 28 25 17 9 8 11 21 19 15 12 11 10 9 9 10 12 15 16 17 17 16 16
3 6 4 4 4 2 1 3 3 3 4 5 5 4 3 3 4 4 7 10 8 10 20 20 16 17 34 31 33 31 28 24 31 25 15 11 9 9 15 17 14 13 12 10 10 9 8 9 11 11 11 13 15 19
2 2 4 2 1 2 2 2 2 3 3 2 3 4 5 5 5 4 5 8 9 12 15 24 25 20 20 29 32 29 24 23 18 16 15 13 13 13 15 17 14 11 10 7 4 5 1 3 5 9 14 17 19 20
Wind_Direction
325 329 342 349 352 343 347 350 348 345 340 336 340 344 349 355 358 1 37 30 19 179 278 254 209 253 301 120 191 269 44 35 266 209 155 277 283 332 111 33 343 87 50 40 8 80 1 353 341 126 128 67 106 88
313 323 330 340 347 342 342 346 344 341 339 328 324 331 337 345 352 356 320 0 340 180 239 288 271 258 234 242 158 49 329 178 271 211 179 305 299 350 100 196 350 60 38 95 32 79 5 360 24 18 13 108 86 100
315 315 320 327 332 336 338 341 342 340 334 329 321 320 328 336 344 355 332 352 343 35 316 359 260 249 259 270 245 123 212 176 251 212 156 197 334 322 128 258 259 11 22 80 121 354 18 28 16 17 17 17 21 36
301 311 312 317 322 329 333 336 340 345 340 335 327 318 318 323 329 336 336 352 340 108 102 282 326 306 278 288 293 37 181 168 149 174 59 21 189 211 192 159 140 259 1 38 74 336 93 50 21 3 352 2 15 14
299 300 297 308 316 319 328 332 338 343 344 343 327 324 308 309 315 323 291 116 8 169 216 277 313 277 259 309 323 26 193 115 130 151 176 212 230 131 95 88 15 339 176 99 125 168 141 292 346 346 345 351 341 349
292 301 297 290 304 313 320 328 332 340 340 338 339 323 307 306 314 319 20 199 41 45 100 315 294 284 299 334 337 340 32 136 152 156 261 281 279 106 89 89 260 76 57 62 113 344 209 277 301 2 331 329 336 326
282 289 295 296 293 300 310 322 328 333 332 331 331 330 311 299 291 219 214 145 338 345 104 310 307 286 320 48 352 353 3 21 66 119 41 301 355 59 85 153 184 138 97 67 50 52 42 10 322 325 332 330 330 344
284 282 286 288 295 297 298 310 320 329 328 324 326 322 310 289 286 284 258 299 214 193 122 244 269 351 14 6 346 7 0 26 12 324 354 23 351 49 78 211 152 150 116 113 90 74 165 253 300 332 341 350 355 350
289 289 284 282 287 293 287 301 316 326 325 321 323 319 300 238 234 310 192 189 236 178 214 194 193 244 19 49 217 351 54 30 312 58 289 67 335 64 197 170 175 174 174 164 140 135 355 328 333 343 347 345 343 337
289 292 282 275 280 284 275 293 308 322 324 319 341 345 289 11 117 269 192 40 21 317 119 228 181 254 114 23 3 37 12 35 24 263 47 63 262 263 209 182 162 161 162 147 145 161 192 230 298 346 333 335 333 328
288 286 281 267 278 266 272 289 301 318 318 332 320 247 328 300 250 231 260 219 151 243 202 236 191 180 220 128 197 169 178 262 53 270 107 327 294 237 171 168 172 172 177 191 180 157 175 192 214 293 346 339 330 333
283 278 264 269 268 258 266 283 289 300 267 278 289 292 283 244 230 255 227 189 218 239 220 195 200 185 190 118 106 176 136 64 244 157 84 257 249 207 163 172 185 184 189 189 185 177 187 198 238 272 292 326 339 336
266 264 267 269 261 254 263 280 288 283 287 302 257 254 168 189 269 232 211 194 297 241 263 286 127 143 68 53 61 98 174 232 92 92 236 224 219 174 177 173 184 197 195 194 197 192 195 197 200 206 271 321 337 348
264 267 265 260 253 255 260 278 286 237 222 223 254 269 202 215 240 206 232 154 254 278 307 331 163 139 142 122 165 186 245 101 310 240 234 234 198 182 181 187 160 193 194 201 206 203 207 205 207 169 91 18 21 17
271 273 273 261 259 254 249 273 222 194 175 237 204 245 234 239 263 239 163 157 194 194 65 67 314 93 102 166 187 143 220 250 215 232 227 224 180 166 172 172 185 184 192 206 217 217 227 231 229 232 223 238 348 9
275 292 283 284 251 232 231 183 168 169 215 235 237 253 275 303 283 273 215 228 167 137 90 62 87 279 209 203 169 213 159 223 244 215 216 146 162 179 174 177 184 197 198 211 221 227 236 238 239 247 263 255 257 263
275 234 270 277 210 206 166 148 158 198 237 228 232 221 244 278 249 260 201 213 142 146 189 145 194 206 47 257 226 177 206 224 212 214 169 165 174 184 179 174 179 189 195 211 229 230 238 249 256 257 259 268 266 263
229 242 256 249 195 154 177 178 204 228 246 232 240 216 208 231 259 271 191 152 136 182 162 237 273 232 152 258 256 252 266 302 315 164 167 174 164 170 179 182 198 205 210 216 220 229 237 241 236 245 256 265 271 273
238 236 228 201 171 181 171 192 198 256 245 252 252 233 229 248 230 237 196 177 159 140 126 257 246 218 226 219 205 243 244 200 178 172 176 195 186 185 197 202 209 212 223 226 220 225 231 234 242 258 259 257 256 273
209 189 192 191 190 211 219 203 201 258 269 272 269 264 230 236 254 234 140 143 162 167 167 218 222 222 201 231 202 224 203 150 126 98 204 251 212 206 209 208 213 223 232 240 243 249 258 264 261 268 253 250 250 263
162 184 181 185 206 228 271 215 229 233 271 259 289 300 266 279 270 242 151 157 166 201 220 219 224 243 216 238 254 194 159 149 171 167 185 202 218 217 229 229 231 232 233 238 247 261 258 249 258 260 248 246 252 248
154 153 127 183 224 215 263 226 245 290 274 260 298 238 276 282 259 219 129 188 230 230 196 185 201 193 215 140 174 184 186 181 176 140 165 150 139 201 234 235 224 228 233 247 257 256 256 246 209 223 239 228 239 242
154 157 147 157 200 189 263 168 245 227 268 279 309 266 241 255 228 107 245 222 246 228 197 191 213 168 144 123 132 117 160 185 185 212 212 209 216 223 231 236 233 230 233 257 247 239 238 198 209 221 210 222 234 244
149 176 202 201 189 233 212 227 216 254 269 265 255 266 257 238 152 128 252 254 247 153 202 208 150 100 65 91 138 185 186 194 196 215 221 214 230 249 242 245 247 245 245 249 221 222 200 207 212 219 229 244 252 260
110 243 148 239 199 212 216 225 212 228 249 230 263 284 310 3 305 251 238 259 216 220 189 146 146 156 155 203 234 211 210 202 193 207 237 219 223 250 243 244 254 252 231 206 210 204 215 220 226 239 249 253 256 259
219 213 187 196 190 210 199 236 215 213 232 251 261 304 352 287 253 247 236 214 202 192 181 176 174 182 235 218 191 218 233 221 220 225 256 222 224 213 206 197 216 232 214 209 208 211 223 230 233 245 267 265 271 277
248 234 201 219 223 203 256 256 245 255 256 218 267 262 243 274 270 269 307 331 278 247 212 200 192 197 212 217 231 239 241 239 229 247 278 271 232 230 231 217 218 242 223 213 221 232 227 216 218 215 221 244 268 282
239 248 212 182 201 216 260 255 237 229 233 191 165 243 186 253 259 271 242 230 313 335 221 216 219 225 231 239 255 262 204 192 167 151 144 158 179 199 207 205 210 209 201 196 197 183 186 216 238 245 261 282 298 305
233 219 191 206 203 199 214 206 235 247 199 167 170 284 283 253 219 235 277 299 304 307 305 230 238 240 242 247 236 210 183 166 152 163 200 218 261 213 188 173 170 175 175 167 183 199 222 265 275 283 290 300 307 311
233 175 217 205 192 215 228 187 217 225 178 152 155 294 290 279 284 286 277 283 274 273 299 287 245 199 201 193 200 197 187 191 199 193 182 216 234 214 184 178 178 179 185 194 205 220 236 257 277 286 303 318 324 323
218 161 214 225 245 223 212 204 217 253 221 207 198 199 238 293 317 304 288 276 272 264 223 221 202 202 188 189 188 191 218 211 214 219 226 244 240 214 197 189 183 181 192 213 235 254 267 275 282 294 302 312 317 318
200 200 198 224 249 225 146 200 207 219 222 208 217 178 187 183 242 270 237 215 241 220 222 214 201 208 211 211 206 207 216 214 219 221 233 220 196 181 192 189 189 200 211 231 250 271 286 292 294 298 303 306 314 327
213 217 210 260 285 279 199 174 236 263 234 233 233 203 171 174 218 257 280 243 233 243 243 220 220 225 221 220 220 217 221 227 224 208 191 181 171 178 192 195 199 197 197 200 178 155 298 299 316 325 329 330 330 331